DHL4318 MGGT-MROC

Flight info

Callsign DHL4318
Flight time N/A
Altitude 35000
Route KAPAN UG436 LIB
Aircraft B752/M-SDE2E3FGHIJ3J4J7RWXY/LB1

Departure

Time 2026-04-22 13:45
Airport La Aurora International Airport (MGGT)

Arrival

Time N/A
Airport Juan Santamaría International Airport (MROC)
Time Latitude Longitude Altitude Speed Heading
2026-04-22 13:02 14.58829 -90.52898 4960 ft 0 kts 287°
2026-04-22 13:21 14.58826 -90.52887 4959 ft 2 kts 287°
2026-04-22 13:22 14.58821 -90.52872 4959 ft 2 kts 287°
2026-04-22 13:22 14.58817 -90.52858 4959 ft 2 kts 287°
2026-04-22 13:22 14.58812 -90.52844 4959 ft 1 kts 287°
2026-04-22 13:22 14.58809 -90.52834 4959 ft 2 kts 280°
2026-04-22 13:23 14.58810 -90.52818 4959 ft 2 kts 253°
2026-04-22 13:23 14.58816 -90.52805 4959 ft 2 kts 231°
2026-04-22 13:23 14.58828 -90.52795 4959 ft 2 kts 208°
2026-04-22 13:23 14.58835 -90.52792 4959 ft 1 kts 194°
2026-04-22 13:24 14.58839 -90.52791 4959 ft 0 kts 196°
2026-04-22 13:26 14.58816 -90.52798 4959 ft 7 kts 199°
2026-04-22 13:26 14.58751 -90.52814 4959 ft 10 kts 179°
2026-04-22 13:26 14.58694 -90.52764 4959 ft 10 kts 110°
2026-04-22 13:27 14.58665 -90.52714 4959 ft 4 kts 150°
2026-04-22 13:27 14.58634 -90.52717 4959 ft 4 kts 198°
2026-04-22 13:27 14.58598 -90.52729 4959 ft 5 kts 199°
2026-04-22 13:27 14.58560 -90.52741 4959 ft 5 kts 195°
2026-04-22 13:28 14.58521 -90.52753 4960 ft 6 kts 197°
2026-04-22 13:28 14.58480 -90.52766 4959 ft 5 kts 197°
2026-04-22 13:28 14.58440 -90.52779 4960 ft 6 kts 196°
2026-04-22 13:28 14.58387 -90.52797 4960 ft 8 kts 197°
2026-04-22 13:29 14.58321 -90.52818 4960 ft 10 kts 197°
2026-04-22 13:29 14.58242 -90.52844 4960 ft 12 kts 197°
2026-04-22 13:29 14.58153 -90.52872 4960 ft 14 kts 197°
2026-04-22 13:29 14.58052 -90.52904 4960 ft 15 kts 197°
2026-04-22 13:30 14.57939 -90.52940 4960 ft 17 kts 197°
2026-04-22 13:30 14.57816 -90.52980 4961 ft 19 kts 197°
2026-04-22 13:30 14.57687 -90.53021 4961 ft 20 kts 197°
2026-04-22 13:30 14.57548 -90.53067 4961 ft 20 kts 197°
2026-04-22 13:31 14.57417 -90.53108 4961 ft 18 kts 198°
2026-04-22 13:31 14.57295 -90.53147 4961 ft 17 kts 197°
2026-04-22 13:31 14.57188 -90.53182 4962 ft 14 kts 197°
2026-04-22 13:31 14.57130 -90.53201 4962 ft 0 kts 197°
2026-04-22 13:37 14.57129 -90.53201 4962 ft 0 kts 197°
2026-04-22 13:38 14.57113 -90.53205 4962 ft 3 kts 187°
2026-04-22 13:38 14.57072 -90.53178 4962 ft 3 kts 101°
2026-04-22 13:38 14.57078 -90.53154 4962 ft 3 kts 54°
2026-04-22 13:39 14.57094 -90.53145 4962 ft 0 kts 17°
2026-04-22 13:43 14.57095 -90.53144 4962 ft 1 kts 17°
2026-04-22 13:43 14.57119 -90.53136 4962 ft 6 kts 17°
2026-04-22 13:44 14.57190 -90.53114 4962 ft 17 kts 17°
2026-04-22 13:44 14.57532 -90.53004 4961 ft 90 kts 17°
2026-04-22 13:44 14.58390 -90.52728 4961 ft 163 kts 16°
2026-04-22 13:44 14.59648 -90.52363 5144 ft 211 kts 18°
2026-04-22 13:45 14.61201 -90.51964 5819 ft 243 kts 11°
2026-04-22 13:45 14.62884 -90.51639 6751 ft 251 kts 14°
2026-04-22 13:45 14.64611 -90.51039 7039 ft 272 kts 21°
2026-04-22 13:45 14.66230 -90.50066 7902 ft 268 kts 45°
2026-04-22 13:46 14.67176 -90.48549 8800 ft 263 kts 71°
2026-04-22 13:46 14.67331 -90.46667 9423 ft 270 kts 100°
2026-04-22 13:46 14.66601 -90.44885 9943 ft 282 kts 122°
2026-04-22 13:46 14.65413 -90.43142 10326 ft 300 kts 124°
2026-04-22 13:47 14.64189 -90.41351 10643 ft 319 kts 123°
2026-04-22 13:47 14.62858 -90.39398 10962 ft 337 kts 124°
2026-04-22 13:47 14.61495 -90.37401 11658 ft 341 kts 124°
2026-04-22 13:47 14.60125 -90.35394 12312 ft 346 kts 124°
2026-04-22 13:48 14.58753 -90.33382 12979 ft 349 kts 124°
2026-04-22 13:48 14.57349 -90.31323 13596 ft 353 kts 124°
2026-04-22 13:48 14.55884 -90.29249 14231 ft 356 kts 130°
2026-04-22 13:48 14.54018 -90.27536 14795 ft 361 kts 147°
2026-04-22 13:49 14.51754 -90.26438 15378 ft 364 kts 162°
2026-04-22 13:49 14.49320 -90.25673 15890 ft 368 kts 159°
2026-04-22 13:49 14.46904 -90.24674 16412 ft 370 kts 155°
2026-04-22 13:49 14.44567 -90.23573 16937 ft 372 kts 153°
2026-04-22 13:50 14.42220 -90.22392 17424 ft 375 kts 152°
2026-04-22 13:50 14.39880 -90.21165 17885 ft 378 kts 152°
2026-04-22 13:50 14.37519 -90.19906 18352 ft 381 kts 151°
2026-04-22 13:50 14.35169 -90.18636 18833 ft 384 kts 151°
2026-04-22 13:51 14.32789 -90.17340 19320 ft 387 kts 151°
2026-04-22 13:51 14.30397 -90.16035 19798 ft 390 kts 151°
2026-04-22 13:51 14.28129 -90.14521 20254 ft 391 kts 138°
2026-04-22 13:51 14.26249 -90.12495 20685 ft 392 kts 129°
2026-04-22 13:52 14.24464 -90.10314 21147 ft 395 kts 129°
2026-04-22 13:52 14.22694 -90.08158 21575 ft 397 kts 129°
2026-04-22 13:52 14.20909 -90.05971 22002 ft 400 kts 129°
2026-04-22 13:52 14.19122 -90.03775 22417 ft 403 kts 129°
2026-04-22 13:53 14.17314 -90.01552 22836 ft 406 kts 129°
2026-04-22 13:53 14.15499 -89.99317 23241 ft 409 kts 129°
2026-04-22 13:53 14.13660 -89.97054 23669 ft 412 kts 129°
2026-04-22 13:53 14.11820 -89.94788 24075 ft 415 kts 130°
2026-04-22 13:54 14.09960 -89.92499 24501 ft 418 kts 130°
2026-04-22 13:54 14.08072 -89.90176 24938 ft 421 kts 130°
2026-04-22 13:54 14.06203 -89.87876 25333 ft 424 kts 130°
2026-04-22 13:54 14.04313 -89.85520 25713 ft 427 kts 129°
2026-04-22 13:55 14.02444 -89.83131 26091 ft 430 kts 129°
2026-04-22 13:55 14.00567 -89.80742 26473 ft 432 kts 129°
2026-04-22 13:55 13.98659 -89.78313 26829 ft 434 kts 129°
2026-04-22 13:55 13.96759 -89.75896 27171 ft 437 kts 129°
2026-04-22 13:56 13.94828 -89.73441 27523 ft 439 kts 130°
2026-04-22 13:56 13.92896 -89.70989 27845 ft 441 kts 130°
2026-04-22 13:56 13.90956 -89.68524 28162 ft 443 kts 130°
2026-04-22 13:56 13.89064 -89.66122 28480 ft 445 kts 130°
2026-04-22 13:57 13.87111 -89.63642 28793 ft 448 kts 130°
2026-04-22 13:57 13.85142 -89.61143 29095 ft 450 kts 130°
2026-04-22 13:57 13.83162 -89.58627 29414 ft 451 kts 130°
2026-04-22 13:57 13.81199 -89.56135 29681 ft 454 kts 130°
2026-04-22 13:58 13.79188 -89.53586 29959 ft 456 kts 130°
2026-04-22 13:58 13.77196 -89.51062 30232 ft 457 kts 130°
2026-04-22 13:58 13.75178 -89.48504 30487 ft 459 kts 130°
2026-04-22 13:58 13.73157 -89.45943 30727 ft 462 kts 130°
2026-04-22 13:59 13.71145 -89.43394 30975 ft 463 kts 130°
2026-04-22 13:59 13.69117 -89.40826 31245 ft 464 kts 130°
2026-04-22 13:59 13.67063 -89.38225 31548 ft 464 kts 130°
2026-04-22 13:59 13.65039 -89.35663 31931 ft 461 kts 130°
2026-04-22 14:00 13.63018 -89.33106 32244 ft 460 kts 130°
2026-04-22 14:00 13.61015 -89.30571 32538 ft 460 kts 130°
2026-04-22 14:00 13.58976 -89.27992 32828 ft 459 kts 130°
2026-04-22 14:00 13.56984 -89.25474 33135 ft 459 kts 130°
2026-04-22 14:01 13.54973 -89.22932 33444 ft 458 kts 130°
2026-04-22 14:01 13.52958 -89.20386 33789 ft 457 kts 130°
2026-04-22 14:01 13.50960 -89.17862 34124 ft 456 kts 130°
2026-04-22 14:01 13.48960 -89.15336 34488 ft 455 kts 130°
2026-04-22 14:02 13.46956 -89.12805 34830 ft 454 kts 130°
2026-04-22 14:02 13.44976 -89.10307 35006 ft 450 kts 130°
2026-04-22 14:02 13.41029 -89.05308 34998 ft 451 kts 130°
2026-04-22 14:03 13.37092 -89.00309 34981 ft 452 kts 130°
2026-04-22 14:03 13.33138 -88.95290 34987 ft 451 kts 130°
2026-04-22 14:04 13.29173 -88.90261 34981 ft 452 kts 130°
2026-04-22 14:04 13.25233 -88.85266 34980 ft 451 kts 130°
2026-04-22 14:05 13.21340 -88.80334 34978 ft 452 kts 130°
2026-04-22 14:06 13.15407 -88.72823 34978 ft 451 kts 130°
2026-04-22 14:06 13.11471 -88.67844 34981 ft 451 kts 130°
2026-04-22 14:07 13.07512 -88.62837 34972 ft 450 kts 130°
2026-04-22 14:07 13.03571 -88.57858 34970 ft 451 kts 130°
2026-04-22 14:08 12.99598 -88.52837 34967 ft 451 kts 130°
2026-04-22 14:08 12.95754 -88.47982 34965 ft 451 kts 130°
2026-04-22 14:09 12.91799 -88.42992 34967 ft 451 kts 130°
2026-04-22 14:09 12.87863 -88.38029 34971 ft 451 kts 130°
2026-04-22 14:10 12.83904 -88.33040 34965 ft 450 kts 130°
2026-04-22 14:10 12.79946 -88.28055 34968 ft 451 kts 130°
2026-04-22 14:11 12.75981 -88.23062 34966 ft 451 kts 130°
2026-04-22 14:11 12.72033 -88.18096 34978 ft 451 kts 130°
2026-04-22 14:12 12.68068 -88.13112 34987 ft 450 kts 130°
2026-04-22 14:12 12.64132 -88.08165 34987 ft 451 kts 130°
2026-04-22 14:13 12.60174 -88.03194 34987 ft 450 kts 130°
2026-04-22 14:13 12.56216 -87.98225 34987 ft 450 kts 130°
2026-04-22 14:14 12.52263 -87.93271 34988 ft 450 kts 130°
2026-04-22 14:14 12.48285 -87.88287 34987 ft 450 kts 130°
2026-04-22 14:15 12.44316 -87.83318 34989 ft 451 kts 130°
2026-04-22 14:15 12.40342 -87.78345 34989 ft 450 kts 130°
2026-04-22 14:16 12.36394 -87.73408 34987 ft 450 kts 130°
2026-04-22 14:16 12.32419 -87.68439 34988 ft 450 kts 130°
2026-04-22 14:17 12.28469 -87.63504 34988 ft 450 kts 130°
2026-04-22 14:17 12.24511 -87.58562 34989 ft 450 kts 130°
2026-04-22 14:18 12.20533 -87.53598 34988 ft 450 kts 130°
2026-04-22 14:18 12.16570 -87.48655 34987 ft 450 kts 130°
2026-04-22 14:19 12.12603 -87.43709 34989 ft 450 kts 130°
2026-04-22 14:19 12.08648 -87.38781 34988 ft 449 kts 130°
2026-04-22 14:20 12.02778 -87.31471 34986 ft 449 kts 130°
2026-04-22 14:20 11.98824 -87.26550 34985 ft 450 kts 130°
2026-04-22 14:21 11.92864 -87.19138 34984 ft 451 kts 130°
2026-04-22 14:22 11.86900 -87.11726 34983 ft 451 kts 130°
2026-04-22 14:23 11.80925 -87.04306 34975 ft 449 kts 130°
2026-04-22 14:23 11.76962 -86.99389 34972 ft 450 kts 130°
2026-04-22 14:24 11.72996 -86.94470 34970 ft 450 kts 130°
2026-04-22 14:24 11.69002 -86.89520 34971 ft 450 kts 130°
2026-04-22 14:24 11.67024 -86.87070 34726 ft 445 kts 130°
2026-04-22 14:25 11.65044 -86.84618 33741 ft 451 kts 130°
2026-04-22 14:25 11.63052 -86.82152 32996 ft 451 kts 130°
2026-04-22 14:25 11.61059 -86.79685 32185 ft 453 kts 130°
2026-04-22 14:25 11.59074 -86.77227 31416 ft 454 kts 129°
2026-04-22 14:26 11.57052 -86.74725 30609 ft 455 kts 129°
2026-04-22 14:26 11.55039 -86.72236 29814 ft 456 kts 129°
2026-04-22 14:26 11.53015 -86.69734 28968 ft 458 kts 129°
2026-04-22 14:26 11.51003 -86.67250 28104 ft 460 kts 129°
2026-04-22 14:27 11.45087 -86.59940 25985 ft 453 kts 129°
2026-04-22 14:27 11.43110 -86.57496 25315 ft 449 kts 128°
2026-04-22 14:28 11.41130 -86.55051 24679 ft 445 kts 128°
2026-04-22 14:28 11.39151 -86.52608 24018 ft 441 kts 128°
2026-04-22 14:28 11.37214 -86.50211 23347 ft 438 kts 128°
2026-04-22 14:28 11.35305 -86.47855 22716 ft 434 kts 128°
2026-04-22 14:29 11.33394 -86.45496 22084 ft 430 kts 128°
2026-04-22 14:29 11.31482 -86.43136 21462 ft 426 kts 128°
2026-04-22 14:29 11.29613 -86.40829 20866 ft 421 kts 128°
2026-04-22 14:29 11.28959 -86.40023 20660 ft 420 kts 128°